Torna al catalogo

SL-16 R/B

AttivoLEO
NORAD 22566·ROCKET BODY·🇷🇺 Russia

Lanciato Mar 26, 1993 da Baikonur Cosmodrome

Loading…

Prossimi Passaggi (prossime 24 ore)

TLE

AggiornatoSource: Space-Track

Epoca: Sep 14, 2026, 04:54 UTC

1 22566U 93016B   26257.20450697 -.00000177  00000-0 -66612-4 0  9997
2 22566  71.0076 179.2407 0009126  24.5149 335.6406 14.15316587728844

Traccia SL-16 R/B in tempo reale con AllMySat

Download on the App Store